Home > Weather > Sabha > Past weeks

Flag for Libya Past Weather in Sabha, Libya — Yesterday and Last 2 Weeks

Now
97 °F

Sunny.


Feels Like: 92 °F
Forecast: 77 / 99 °F
Wind: 12 mph from Northeast

Location: In Amenas

Current Time: Jul 30, 2016 at 3:19:58 PM

Latest Report: Jul 30, 2016 at 2:00 PM


Visibility: 10 mi

Pressure: 30.01 "Hg

Humidity: 14%

Dew Point: 41 °F

Location of SabhaLocation

Past Weather in Sabha — Graph

°F

Sabha Temperature Yesterday

Maximum temperature yesterday: 104 °F (at 4:00 PM)
Minimum temperature yesterday: 81 °F (at 6:00 AM)
Average temperature yesterday: 94 °F

High & Low Weather Summary for the Past Weeks

 TemperatureHumidityPressure
High109 °F (Jul 18, 3:00 PM)57% (Jul 16, 6:00 AM)30.04 "Hg (Jul 16, 6:00 AM)
Low70 °F (Jul 21, 5:00 AM)9% (Jul 24, 6:00 PM)29.83 "Hg (Jul 26, 5:00 PM)
Average91 °F20%29.95 "Hg
* Reported Jul 15 2:00 PM — Jul 30 2:00 PM, Sabha, Weather by CustomWeather, © 2016

Note: Actual official high and low records may vary slightly from our data, if they occured in-between our weather recording intervals... More about our weather records

Advertising

Sabha Weather History for the Previous 24 Hours

Scroll right to see more
 ConditionsComfort  
Time TempWeatherWind HumidityBarometerVisibility
2:00 PM
Sat, Jul 30
97 °FSunny.12 mph14%30.01 "Hg10 mi
1:00 PM97 °FPassing clouds.9 mph14%30.01 "HgN/A
12:00 PM95 °FPassing clouds.10 mph16%30.04 "HgN/A
11:00 AM93 °FSunny.14 mph19%30.04 "Hg10 mi
10:00 AM90 °FSunny.15 mph21%30.04 "Hg10 mi
9:00 AM84 °FSunny.13 mph23%30.04 "Hg10 mi
8:00 AM79 °FSunny.12 mph26%30.01 "Hg10 mi
7:00 AM77 °FSunny.10 mph26%29.98 "Hg10 mi
6:00 AM77 °FSunny.12 mph26%29.98 "Hg10 mi
5:00 AM79 °FClear.15 mph24%29.98 "Hg10 mi
4:00 AM81 °FClear.16 mph23%29.98 "Hg10 mi
3:00 AM82 °FClear.16 mph20%29.98 "Hg10 mi
2:00 AM86 °FClear.17 mph18%29.98 "Hg10 mi
1:00 AM88 °FClear.22 mph16%29.98 "Hg10 mi
12:00 AM90 °FClear.22 mph16%29.95 "Hg10 mi
11:00 PM
Fri, Jul 29
91 °FClear.20 mph15%29.95 "Hg10 mi
10:00 PM95 °FClear.10 mph19%29.92 "Hg10 mi
9:00 PM97 °FClear.12 mph17%29.92 "Hg10 mi
8:00 PM100 °FClear.15 mph15%29.92 "Hg10 mi
7:00 PM102 °FSunny.12 mph13%29.89 "Hg10 mi
6:00 PM104 °FPassing clouds.10 mph12%29.89 "HgN/A
5:00 PM104 °FSunny.13 mph12%29.89 "Hg10 mi
4:00 PM104 °FPassing clouds.10 mph13%29.92 "HgN/A
3:00 PM102 °FClear.10 mph15%29.92 "Hg4 mi
Weather by CustomWeather, © 2016

See weather overviewHow to use our weather pages